Regional Weather Roundup
Issued by NWS

Home | Current Version | Previous Version | Text Only | Print | Product List | Glossary Off
Versions: 1 2 3 4 5 6 7 8 9 10 11 12 13 14 15 16 17 18 19 20 21 22 23 24 25 26 27 28 29 30 31 32 33 34 35 36 37 38 39 40 41 42 43 44 45 46 47

000
ASUS43 KDMX 251207
RWRIA

WEATHER ROUNDUP FOR IOWA
NATIONAL WEATHER SERVICE DES MOINES IA
700 AM CDT FRI JUL 25 2014

NOTE: "FAIR" INDICATES FEW OR NO CLOUDS BELOW 12,000 FEET WITH NO
SIGNIFICANT WEATHER AND/OR OBSTRUCTIONS TO VISIBILITY.

* - THESE STATIONS ARE NOT NWS STATIONS...THUS NOT UNDER NWS
QUALITY CONTROL.  THEY ALSO DO NOT REPORT WEATHER SUCH
AS PRECIPITATION OR FOG.

IAZ001>003-012>014-020>022-031>034-043>046-251300-
   NORTHWEST IOWA

CITY           SKY/WX    TMP DP  RH WIND       PRES   REMARKS
CARROLL *      MOCLDY    63  59  88 SE21G30   29.87F
CHEROKEE *     PTCLDY    64  61  90 SE13G23   29.85F
DENISON *      CLEAR     66  61  82 SE17G28   29.83R
LE MARS *      CLOUDY    66  61  82 SE14G23   29.82S
ORANGE CITY *  CLOUDY    66  61  82 SE13G20   29.85R
SHELDON *      CLOUDY    66  61  82 SE20G26   29.84F
SIOUX CITY     PTCLDY    68  61  78 E14       29.80R
6HR MIN TEMP:  68; 6HR MAX TEMP:  79;

SPENCER        CLOUDY    66  61  84 SE16      29.87S
6HR MIN TEMP:  63; 6HR MAX TEMP:  66; 6HR PCP:  0.10;

STORM LAKE *   CLEAR     63  61  94 SE15G26   29.88F
$$

IAZ055>058-069>071-079>083-090>094-251300-
   SOUTHWEST IOWA

CITY           SKY/WX    TMP DP  RH WIND       PRES   REMARKS
ATLANTIC *     MOCLDY    68  59  73 E14G20    29.87S
AUDUBON *      MOCLDY    66  63  88 SE15G23   29.89F
CLARINDA *     CLEAR     70  63  78 VRB3      29.85S
COUNCIL BLFS * CLEAR     70  66  88 E12       29.81R
CRESTON *      CLOUDY    64  59  82 E13G21    29.92F
HARLAN  *      PTCLDY    68  61  77 SE13G23   29.88F
LAMONI         CLOUDY    66  57  72 E7        29.93R
6HR MIN TEMP:  65; 6HR MAX TEMP:  67;

RED OAK *      CLOUDY    70  63  78 E10       29.86R
SHENANDOAH *   CLEAR     70  63  78 SE10G16   29.82R
$$

IAZ047>049-059>061-072>074-084-251300-
   CENTRAL IOWA

CITY           SKY/WX    TMP DP  RH WIND       PRES   REMARKS
AMES           CLOUDY    64  61  90 SE18G28   29.91F
6HR MIN TEMP:  62; 6HR MAX TEMP:  65; 6HR PCP:  0.51;

ANKENY *       CLOUDY    64  61  88 SE15G23   29.93F
CHARITON *     CLOUDY    64  57  77 E16G22    29.96F
DES MOINES     LGT RAIN  66  60  81 E13       29.94F
6HR MIN TEMP:  65; 6HR MAX TEMP:  70; 6HR PCP:  0.09;

GRINNELL*      RAIN      61  59  94 SE16      29.96F
KNOXVILLE *    LGT RAIN  63  59  88 E15G23    29.99S
MARSHALLTOWN   CLOUDY    65  63  93 S17       29.90F
6HR MIN TEMP:  63; 6HR MAX TEMP:  66; 6HR PCP:  1.02;

PELLA *        HVY RAIN  61  60  94 E10G18    30.03S VSB 1
PERRY *        CLOUDY    64  59  82 SE22G28   29.90F
$$

IAZ004>006-015-016-023>025-035-036-251300-
   NORTH CENTRAL IOWA

CITY           SKY/WX    TMP DP  RH WIND       PRES   REMARKS
ALGONA *       CLOUDY    64  63  94 SE7       29.91R
CLARION *      CLOUDY    64  63  94 SE7G18    29.91R
ESTHERVILLE    CLOUDY    66  61  84 SE13      29.92R THUNDER
6HR MIN TEMP:  63; 6HR MAX TEMP:  69; 6HR PCP:  1.12;

FORT DODGE *   CLOUDY    64  59  82 S13G20    29.89F
MASON CITY     LGT RAIN  64  63  96 S8        29.90F
6HR MIN TEMP:  63; 6HR MAX TEMP:  65; 6HR PCP:  0.31;

FOREST CITY *  HVY RAIN  63  63 100 S15       29.88F
IOWA FALLS *   LGT RAIN  64  63  94 SE16      29.90F
$$

IAZ007>011-017>019-026>030-037>042-050>054-066-251300-
   NORTHEAST IOWA

CITY           SKY/WX    TMP DP  RH WIND       PRES   REMARKS
CEDAR RAPIDS   LGT RAIN  61  59  93 SE12      30.01F FOG
6HR MIN TEMP:  61; 6HR MAX TEMP:  65; 6HR PCP:  0.34;

CHARLES CITY * CLOUDY    63  61  94 SE10      29.94F
CLINTON *      CLOUDY    61  57  88 SW16      30.08F
DECORAH *      CLOUDY    61  59  94 SE7G14    29.99R
DUBUQUE        LGT RAIN  60  57  89 S14       30.03S
6HR MIN TEMP:  58; 6HR MAX TEMP:  61; 6HR PCP:  0.13;

MONTICELLO *   CLOUDY    61  59  94 S17G23    30.00F FOG
OELWEIN *      MOSUNNY   63  61  94 S17G24    29.95S
WATERLOO       LGT RAIN  62  61  96 S14       29.91F
6HR MIN TEMP:  62; 6HR MAX TEMP:  68; 6HR PCP:  0.30;

$$

IAZ064-065-067-068-078-251300-
   EAST CENTRAL IOWA

CITY           SKY/WX    TMP DP  RH WIND       PRES   REMARKS
DAVENPORT      RAIN      62  59  90 S5        30.09S FOG
6HR MIN TEMP:  60; 6HR MAX TEMP:  64; 6HR PCP:  0.12;

IOWA CITY      RAIN      61  61 100 E6        30.08S
6HR MIN TEMP:  61; 6HR MAX TEMP:  64; 6HR PCP:  0.18;

MT. PLEASANT * RAIN      61  59  93 W5        30.08S
MUSCATINE *    LGT RAIN  63  61  94 CALM      30.08S
QUAD CITIES    LGT RAIN  62  58  86 CALM      30.09R
6HR MIN TEMP:  60; 6HR MAX TEMP:  63; 6HR PCP:  0.03;

$$

IAZ062-063-075>077-085>089-095>099-251300-
   SOUTHEAST IOWA

CITY           SKY/WX    TMP DP  RH WIND       PRES   REMARKS
BURLINGTON     LGT RAIN  63  58  83 SE3       30.06R
6HR MIN TEMP:  63; 6HR MAX TEMP:  66; 6HR PCP:  0.01;

FAIRFIELD *    CLOUDY    63  57  82 SE9G18    30.03R
FORT MADISON * LGT RAIN  63  61  94 SE6       30.06F
KEOKUK *       CLOUDY    64  59  82 CALM      30.08R
OSKALOOSA *    RAIN      61  59  94 S5        30.08R
CENTERVILLE *  LGT RAIN  61  59  94 E13G20    29.99F
OTTUMWA        HVY RAIN  61  59  93 N7        30.09R FOG
6HR MIN TEMP:  61; 6HR MAX TEMP:  66; 6HR PCP:  0.76;

WASHINGTON *   RAIN      61  61 100 NE9       30.07R
$$

ABBREVIATIONS USED IN REMARKS
   TC - TEMPERATURES IN CELSIUS
  WCI - WIND CHILL INDEX
   HX - HEAT INDEX
  VSB - VISIBILITY
$$




USA.gov is the U.S. government's official web portal to all federal, state and local government web resources and services.